{"data":{"norad_id":64861,"intl_designator":"2025-152V","name":"STARLINK-34651","alt_names":[],"object_type":"PAYLOAD","status":"ACTIVE","operator":null,"country":"US","launch_date":"2025-07-19","launch_site_code":"AFWTR","launch_vehicle":null,"mission":null,"orbit_class":"UNKNOWN","rcs_meters":null,"size_class":null,"mass_kg":null,"dimensions":null,"purposes":["comms"],"wikipedia_slug":null,"has_3d_model":false,"image_url":null,"decayed_at":null,"tle_current":{"epoch":"2026-09-20T12:42:20.975616Z","epoch_age_seconds":121789,"freshness":"FRESH","line1":"1 64861U 25152V   26263.52940944  .00012176  00000+0  37872-3 0  9992","line2":"2 64861  97.2849 114.0365 0002075  84.0964 276.0515 15.33455664 64829","mean_motion":15.33455664,"eccentricity":0.0002075,"inclination_deg":97.2849,"raan_deg":114.0365,"arg_perigee_deg":84.0964,"mean_anomaly_deg":276.0515,"bstar":0.00037872,"rev_number":6482,"period_min":93.905551611696,"perigee_km":464.0913890482,"apogee_km":466.93150315333,"semimajor_km":6843.6484461008,"source":"CELESTRAK","updated_at":"2026-09-21T09:00:35.452458Z"}}}